Location: Arthez
(43.0833°N, 0.2500°W)
Time: 12:59:08
(UTC+00:00)

NOSS 3-1 (C) - Pass Details

Date: 23 October 2021
Orbit: 717 x 1491 km, 63.4° (Epoch: 25 November)

Event Time Altitude Azimuth Distance (km) Brightness Sun altitude
Rises 18:55:37 0° 233° (SW) 3,183 7.0 -20.8°
Reaches altitude 10° 18:57:56 10° 239° (WSW) 2,315 6.2 -21.2°
Maximum altitude 19:03:03 50° 314° (NW) 1,080 4.0 -22.1°
Enters shadow 19:08:45 11° 29° (NNE) 2,604 5.5 -23.2°
